Flag for Belgium Weather past 2 weeks in Leuven, Belgium

Now
41 °F

Partly cloudy.


Feels Like: 33 °F
Forecast: 35 / 39 °F
Wind: 14 mph from Southwest

Location: Brussels National Airport

Current Time: Jan 28, 2015 at 8:04:52 AM

Latest Report: Jan 28, 2015 at 7:20 AM


Visibility: N/A

Pressure: 29.92 "Hg

Humidity: 87%

Dew point: 37 °F

Location of LeuvenLocation

Historic Weather in Leuven — Graph

°F

Leuven temperature yesterday

Maximum temperature yesterday: 43 °F (at 1:50 PM)
Minimum temperature yesterday: 36 °F (at 3:50 AM)
Average temperature yesterday: 39 °F

Past Weeks' High & Low Weather Summary

 TemperatureHumidityPressure
High50 °F (Jan 13, 6:20 AM)100% (Jan 19, 1:50 AM)30.45 "Hg (Jan 19, 1:50 AM)
Low27 °F (Jan 22, 12:50 AM)66% (Jan 16, 1:20 PM)29.36 "Hg (Jan 15, 2:50 PM)
Average37 °F86%29.97 "Hg
* Reported Jan 13 6:20 AM — Jan 28 6:50 AM, Leuven, Weather by CustomWeather, © 2014

Note: Actual official high and low records may vary slightly from our data, if they occured in-between our weather recording intervals... More about our weather records

Advertising

Leuven weather history for previous 24 hours

 ConditionsComfort  
Time TempWeatherWind HumidityBarometerVisibility
6:50 AM
Jan 28
41 °FPassing clouds.14 mph87%29.98 "HgN/A
6:20 AM41 °FPassing clouds.12 mph87%29.98 "HgN/A
5:50 AM41 °FPassing clouds.12 mph87%29.98 "HgN/A
5:20 AM41 °FPartly cloudy.15 mph87%30.01 "HgN/A
4:50 AM41 °FPassing clouds.12 mph87%30.04 "HgN/A
4:20 AM41 °FPassing clouds.12 mph87%30.04 "HgN/A
3:50 AM41 °FPassing clouds.10 mph87%30.04 "HgN/A
3:20 AM41 °FPassing clouds.8 mph87%30.07 "HgN/A
2:50 AM41 °FPassing clouds.9 mph87%30.09 "HgN/A
2:20 AM41 °FPassing clouds.10 mph87%30.09 "HgN/A
1:50 AM41 °FPassing clouds.9 mph87%30.12 "HgN/A
1:20 AM39 °FPassing clouds.8 mph100%30.15 "Hg4 mi
12:50 AM41 °FLight rain. Fog.10 mph93%30.15 "Hg3 mi
12:20 AM39 °FPassing clouds.8 mph93%30.18 "Hg6 mi
11:50 PM
Jan 27
39 °FPassing clouds.8 mph93%30.18 "Hg6 mi
11:20 PM39 °FLight rain. Passing clouds.6 mph93%30.18 "HgN/A
10:50 PM39 °FPassing clouds.7 mph93%30.18 "HgN/A
10:20 PM37 °FPassing clouds.7 mph93%30.21 "HgN/A
9:50 PM36 °FPassing clouds.7 mph93%30.21 "HgN/A
9:20 PM36 °FPassing clouds.7 mph93%30.21 "HgN/A
8:50 PM36 °FClear.7 mph93%30.21 "Hg10 mi
8:20 PM36 °FPassing clouds.5 mph93%30.24 "HgN/A
7:50 PM39 °FPassing clouds.7 mph87%30.24 "HgN/A
7:20 PM39 °FPassing clouds.6 mph81%30.24 "HgN/A
6:50 PM37 °FPassing clouds.6 mph87%30.24 "HgN/A
6:20 PM39 °FPassing clouds.7 mph81%30.24 "HgN/A
5:50 PM39 °FPassing clouds.8 mph87%30.24 "HgN/A
5:20 PM39 °FPassing clouds.6 mph87%30.24 "HgN/A
4:50 PM41 °FPassing clouds.7 mph81%30.24 "HgN/A
4:20 PM41 °FPassing clouds.6 mph81%30.24 "HgN/A
3:50 PM43 °FPassing clouds.10 mph76%30.24 "HgN/A
3:20 PM43 °FPassing clouds.10 mph81%30.24 "HgN/A
2:50 PM43 °FPassing clouds.8 mph76%30.24 "HgN/A
2:20 PM43 °FScattered clouds.9 mph76%30.24 "HgN/A
1:50 PM43 °FBroken clouds.9 mph81%30.27 "HgN/A
1:20 PM41 °FBroken clouds.9 mph87%30.27 "HgN/A
12:50 PM41 °FBroken clouds.9 mph87%30.27 "HgN/A
12:20 PM41 °FBroken clouds.10 mph87%30.27 "HgN/A
11:50 AM41 °FBroken clouds.9 mph87%30.27 "HgN/A
11:20 AM39 °FPassing clouds.9 mph87%30.27 "HgN/A
10:50 AM39 °FPassing clouds.8 mph87%30.27 "HgN/A
10:20 AM39 °FPassing clouds.7 mph87%30.27 "HgN/A
9:50 AM37 °FPassing clouds.8 mph93%30.27 "HgN/A
9:20 AM37 °FPassing clouds.7 mph87%30.27 "HgN/A
8:50 AM37 °FPassing clouds.8 mph87%30.27 "HgN/A
8:20 AM37 °FPassing clouds.7 mph87%30.24 "HgN/A
Weather by CustomWeather, © 2014

See weather overviewHow to use our weather pages